Weather History for KSBN - June, 2014

Change the Weather History Date:

Thursday, June 26, 2014

  Actual Average Record
Temperature  
Mean Temperature 71 °F 72 °F  
Max Temperature 80 °F 82 °F 96 °F (1983)
Min Temperature 61 °F 62 °F 46 °F (1902)
Degree Days  
Heating Degree Days 0 1  
Month to date heating degree days 17 43  
Since 1 June heating degree days 17 43  
Since 1 July heating degree days 6953 6297  
Cooling Degree Days 6 7  
Month to date cooling degree days 166 133  
Year to date cooling degree days 251 189  
Since 1 June cooling degree days 166 133  
Growing Degree Days 20 (Base 50)    
Moisture  
Dew Point 62 °F    
Average Humidity 78    
Maximum Humidity 97    
Minimum Humidity 58    
Precipitation  
Precipitation 0.00 in 0.12 in 1.87 in (1994)
Month to date precipitation 8.35 3.34  
Year to date precipitation 23.43 17.06  
Snow  
Snow 0.00 in 0.00 in 0.00 in (2002)
Month to date snowfall 0.0  
Since 1 June snowfall 0.0  
Since 1 July snowfall 66.6  
Snow Depth -    
Sea Level Pressure  
Sea Level Pressure 30.06 in    
Wind  
Wind Speed 4 mph (NNW)    
Max Wind Speed 8 mph    
Max Gust Speed 10 mph    
Visibility 6 miles    
Events      
T = Trace of Precipitation, MM = Missing Value Source: NWS Daily Summary

Daily Weather History Graph

Daily Weather History Graph

Search for Another Location

Airport or City:

Trip Planner

Search our weather history database for the weather conditions in past years. The results will help you decide how hot, cold, wet, or windy it might be!

Date:

Astronomy

Jun. 26, 2014 Rise Set
Actual Time 6:12 AM EDT 9:23 PM EDT
Civil Twilight 5:38 AM EDT 9:58 PM EDT
Nautical Twilight 4:54 AM EDT 10:41 PM EDT
Astronomical Twilight 4:01 AM EDT 11:34 PM EDT
Moon 5:52 AM EDT (6/26) 8:43 PM EDT (6/26)
Length of Visible Light 16h 19m
Length of Day
15h 11m
Waning Crescent, 0% of the Moon is Illuminated
Jun 26
Waning Crescent
Jun 27
New
Jul 5
First Quarter
Jul 12
Full
Jul 18
Last Quarter

Hourly Weather History & Observations

Time (EDT) Temp. Dew Point Humidity Pressure Visibility Wind Dir Wind Speed Gust Speed Precip Events Conditions
12:03 AM 64.4 °F 62.6 °F 94% 30.04 in 3.0 mi North 5.8 mph - N/A   Overcast
12:12 AM 64.0 °F 62.1 °F 93% 30.04 in 2.5 mi NNE 5.8 mph - N/A   Overcast
12:37 AM 64.0 °F 62.1 °F 93% 30.05 in 3.0 mi North 5.8 mph - N/A   Overcast
12:50 AM 64.4 °F 62.6 °F 94% 30.05 in 2.5 mi NW 8.1 mph - N/A   Overcast
12:54 AM 64.4 °F 62.6 °F 94% 30.05 in 3.0 mi North 6.9 mph - N/A   Overcast
1:07 AM 64.0 °F 62.1 °F 93% 30.05 in 2.5 mi North 4.6 mph - N/A   Overcast
1:28 AM 64.0 °F 62.1 °F 93% 30.05 in 1.8 mi Calm Calm - N/A   Overcast
1:54 AM 64.0 °F 62.1 °F 93% 30.05 in 2.0 mi West 5.8 mph - N/A   Overcast
2:45 AM 63.0 °F 61.0 °F 93% 30.06 in 2.0 mi NNW 3.5 mph - N/A   Overcast
2:54 AM 64.0 °F 62.1 °F 93% 30.05 in 1.5 mi NW 3.5 mph - N/A   Overcast
3:32 AM 63.0 °F 61.0 °F 93% 30.07 in 2.0 mi NW 5.8 mph - N/A   Overcast
3:42 AM 63.0 °F 61.0 °F 93% 30.07 in 1.2 mi West 5.8 mph - N/A   Overcast
3:54 AM 63.0 °F 61.0 °F 93% 30.05 in 1.5 mi North 5.8 mph - N/A   Overcast
4:18 AM 63.0 °F 61.0 °F 93% 30.06 in 2.0 mi North 5.8 mph - N/A   Overcast
4:54 AM 63.0 °F 61.0 °F 93% 30.05 in 3.0 mi NNW 5.8 mph - N/A   Overcast
5:03 AM 63.0 °F 60.1 °F 90% 30.07 in 2.5 mi WNW 5.8 mph - N/A   Overcast
5:18 AM 62.1 °F 60.1 °F 93% 30.07 in 3.0 mi NW 3.5 mph - N/A   Overcast
5:54 AM 62.1 °F 60.1 °F 93% 30.07 in 2.0 mi NNW 3.5 mph - N/A   Overcast
6:18 AM 62.1 °F 59.0 °F 90% 30.07 in 0.8 mi North 5.8 mph - N/A   Overcast
6:54 AM 61.0 °F 59.0 °F 93% 30.07 in 0.8 mi NNW 4.6 mph - N/A   Overcast
7:54 AM 61.0 °F 59.0 °F 93% 30.08 in 0.8 mi NNW 3.5 mph - N/A   Overcast
8:54 AM 62.1 °F 60.1 °F 93% 30.09 in 1.2 mi Calm Calm - N/A   Overcast
9:34 AM 63.0 °F 61.0 °F 93% 30.09 in 7.0 mi Calm Calm - N/A   Overcast
9:54 AM 64.0 °F 61.0 °F 90% 30.09 in 8.0 mi Calm Calm - N/A   Overcast
10:47 AM 64.9 °F 61.0 °F 87% 30.09 in 10.0 mi WSW 3.5 mph - N/A   Overcast
10:54 AM 64.9 °F 61.0 °F 87% 30.09 in 10.0 mi Calm Calm - N/A   Overcast
11:54 AM 66.9 °F 62.1 °F 84% 30.09 in 10.0 mi WSW 4.6 mph - N/A   Overcast
12:54 PM 69.1 °F 62.1 °F 78% 30.08 in 10.0 mi Calm Calm - N/A   Overcast
1:19 PM 70.0 °F 62.1 °F 76% 30.09 in 10.0 mi Variable 3.5 mph - N/A   Overcast
1:54 PM 72.0 °F 64.0 °F 76% 30.06 in 10.0 mi Calm Calm - N/A   Overcast
2:44 PM 73.9 °F 64.0 °F 71% 30.06 in 10.0 mi Variable 3.5 mph - N/A   Mostly Cloudy
2:54 PM 75.0 °F 64.0 °F 69% 30.05 in 10.0 mi Calm Calm - N/A   Scattered Clouds
3:54 PM 77.0 °F 64.9 °F 66% 30.04 in 10.0 mi NW 5.8 mph - N/A   Clear
4:54 PM 78.1 °F 63.0 °F 60% 30.04 in 10.0 mi Calm Calm - N/A   Clear
5:54 PM 79.0 °F 64.0 °F 60% 30.02 in 10.0 mi WNW 4.6 mph - N/A   Clear
6:54 PM 79.0 °F 63.0 °F 58% 30.01 in 10.0 mi NNW 5.8 mph - N/A   Clear
7:54 PM 78.1 °F 64.0 °F 62% 30.01 in 10.0 mi North 4.6 mph - N/A   Clear
8:54 PM 73.9 °F 64.0 °F 71% 30.01 in 10.0 mi North 4.6 mph - N/A   Clear
9:54 PM 70.0 °F 64.9 °F 84% 30.03 in 10.0 mi NNW 6.9 mph - N/A   Clear
10:54 PM 66.9 °F 63.0 °F 87% 30.05 in 9.0 mi North 4.6 mph - N/A   Clear
11:54 PM 66.0 °F 62.1 °F 87% 30.06 in 9.0 mi North 4.6 mph - N/A   Clear